When you browse on this site, cookies collect data to enhance your experience and personalize the content and advertising you see.
Visit our Privacy Policy to learn more. By continuing to use the site, you agree to this use of cookies and data.
  • In Deutschland
  • Länderverzeichnis
  • Für 7 Tage
  • Wassertemperatur
  • Wetterkarte
  • Widgets
  • user-avatar
    Anmelden

    Stündliche Wetter Ischgl

    Heute, 22 August, Donnerstag

    Zeit Temperatur Niederschläge Wind Luftdruck Luftfeuchtigkeit
    00:00 +7°C° 0.1 mm 1 m/S 580 mmHg 91%
    01:00 +8°C° 0.1 mm 1 m/S 580 mmHg 89%
    02:00 +8°C° 0.1 mm 1 m/S 580 mmHg 89%
    03:00 +8°C° 0.1 mm 1 m/S 580 mmHg 88%
    04:00 +8°C° 0.1 mm 1 m/S 579 mmHg 88%
    05:00 +8°C° 0 mm 1 m/S 580 mmHg 85%
    06:00 +9°C° 0 mm 1 m/S 580 mmHg 81%
    07:00 +10°C° 0 mm 1 m/S 581 mmHg 78%
    08:00 +11°C° 0.1 mm 1 m/S 582 mmHg 71%
    09:00 +13°C° 0.1 mm 1 m/S 583 mmHg 64%
    10:00 +15°C° 0.1 mm 1 m/S 583 mmHg 57%
    11:00 +15°C° 0.5 mm 1 m/S 583 mmHg 56%
    12:00 +15°C° 0.5 mm 1 m/S 584 mmHg 56%
    13:00 +16°C° 0.5 mm 1 m/S 584 mmHg 56%
    14:00 +15°C° 1.1 mm 1 m/S 583 mmHg 61%
    15:00 +14°C° 1.1 mm 1 m/S 583 mmHg 67%
    16:00 +13°C° 1.1 mm 1 m/S 582 mmHg 72%
    17:00 +12°C° 1.1 mm 1 m/S 582 mmHg 78%
    18:00 +11°C° 1.1 mm 1 m/S 581 mmHg 83%
    19:00 +9°C° 1.1 mm 1 m/S 581 mmHg 88%
    20:00 +9°C° 0.1 mm 1 m/S 580 mmHg 87%
    21:00 +8°C° 0.1 mm 1 m/S 580 mmHg 87%
    22:00 +8°C° 0.1 mm 1 m/S 580 mmHg 86%
    23:00 +7°C° 0 mm 1 m/S 580 mmHg 86%

    Morgen, 23 August, Freitag

    Zeit Temperatur Niederschläge Wind Luftdruck Luftfeuchtigkeit
    00:00 +7°C° 0 mm 1 m/S 580 mmHg 86%
    01:00 +6°C° 0 mm 1 m/S 579 mmHg 85%
    02:00 +6°C° 0 mm 1 m/S 579 mmHg 85%
    03:00 +6°C° 0 mm 1 m/S 579 mmHg 85%
    04:00 +6°C° 0 mm 1 m/S 579 mmHg 85%
    05:00 +7°C° 0 mm 1 m/S 579 mmHg 83%
    06:00 +9°C° 0 mm 1 m/S 580 mmHg 81%
    07:00 +10°C° 0 mm 1 m/S 581 mmHg 79%
    08:00 +12°C° 0 mm 1 m/S 582 mmHg 71%
    09:00 +13°C° 0 mm 1 m/S 583 mmHg 64%
    10:00 +15°C° 0 mm 1 m/S 583 mmHg 57%
    11:00 +15°C° 0.3 mm 1 m/S 583 mmHg 56%
    12:00 +16°C° 0.3 mm 1 m/S 584 mmHg 54%
    13:00 +16°C° 0.3 mm 1 m/S 584 mmHg 53%
    14:00 +16°C° 1.2 mm 1 m/S 583 mmHg 58%
    15:00 +15°C° 1.2 mm 1 m/S 583 mmHg 64%
    16:00 +14°C° 1.2 mm 1 m/S 582 mmHg 69%
    17:00 +13°C° 0.9 mm 1 m/S 581 mmHg 75%
    18:00 +11°C° 0.9 mm 0 m/S 581 mmHg 81%
    19:00 +10°C° 0.9 mm 0 m/S 580 mmHg 87%
    20:00 +10°C° 0.4 mm 0 m/S 580 mmHg 87%
    21:00 +9°C° 0.4 mm 0 m/S 580 mmHg 87%
    22:00 +9°C° 0.4 mm 1 m/S 580 mmHg 88%
    23:00 +9°C° 0 mm 1 m/S 580 mmHg 88%

    übermorgen, 24 August, Samstag

    Zeit Temperatur Niederschläge Wind Luftdruck Luftfeuchtigkeit
    00:00 +8°C° 0 mm 1 m/S 579 mmHg 88%
    01:00 +7°C° 0 mm 1 m/S 578 mmHg 88%
    02:00 +7°C° 0 mm 1 m/S 578 mmHg 87%
    03:00 +7°C° 0 mm 1 m/S 578 mmHg 87%
    04:00 +7°C° 0 mm 1 m/S 578 mmHg 86%
    05:00 +8°C° 0 mm 1 m/S 578 mmHg 84%
    06:00 +9°C° 0 mm 1 m/S 579 mmHg 82%
    07:00 +10°C° 0 mm 1 m/S 580 mmHg 79%
    08:00 +12°C° 0 mm 1 m/S 580 mmHg 71%
    09:00 +14°C° 0 mm 1 m/S 581 mmHg 64%
    10:00 +15°C° 0 mm 1 m/S 582 mmHg 56%
    11:00 +16°C° 0.5 mm 1 m/S 582 mmHg 55%
    12:00 +16°C° 0.5 mm 1 m/S 582 mmHg 54%
    13:00 +18°C° 0.5 mm 1 m/S 582 mmHg 53%
    14:00 +16°C° 1.3 mm 1 m/S 582 mmHg 60%
    15:00 +15°C° 1.3 mm 1 m/S 581 mmHg 66%
    16:00 +14°C° 1.3 mm 1 m/S 581 mmHg 73%
    17:00 +13°C° 0.9 mm 1 m/S 580 mmHg 78%
    18:00 +11°C° 0.9 mm 0 m/S 580 mmHg 83%
    19:00 +10°C° 0.9 mm 0 m/S 579 mmHg 89%
    20:00 +9°C° 0.2 mm 0 m/S 579 mmHg 89%
    21:00 +9°C° 0.2 mm 0 m/S 579 mmHg 89%
    22:00 +9°C° 0.2 mm 1 m/S 579 mmHg 89%
    23:00 +8°C° 0 mm 1 m/S 578 mmHg 89%

    25 August, Sonntag

    Zeit Temperatur Niederschläge Wind Luftdruck Luftfeuchtigkeit
    00:00 +8°C° 0 mm 1 m/S 578 mmHg 89%
    01:00 +7°C° 0 mm 1 m/S 578 mmHg 89%
    02:00 +7°C° 0 mm 1 m/S 577 mmHg 88%
    03:00 +7°C° 0 mm 1 m/S 577 mmHg 88%
    04:00 +7°C° 0 mm 1 m/S 577 mmHg 88%
    05:00 +7°C° 0 mm 0 m/S 578 mmHg 85%
    06:00 +8°C° 0 mm 0 m/S 579 mmHg 83%
    07:00 +10°C° 0 mm 0 m/S 579 mmHg 80%
    08:00 +11°C° 0.1 mm 0 m/S 580 mmHg 74%
    09:00 +14°C° 0.1 mm 1 m/S 581 mmHg 67%
    10:00 +15°C° 0.1 mm 1 m/S 582 mmHg 61%
    11:00 +16°C° 0.3 mm 1 m/S 582 mmHg 56%
    12:00 +18°C° 0.3 mm 1 m/S 582 mmHg 52%
    13:00 +18°C° 0.3 mm 2 m/S 582 mmHg 47%
    14:00 +17°C° 0.4 mm 2 m/S 582 mmHg 51%
    15:00 +17°C° 0.4 mm 2 m/S 582 mmHg 54%
    16:00 +16°C° 0.4 mm 2 m/S 582 mmHg 58%
    17:00 +14°C° 0.3 mm 2 m/S 581 mmHg 68%
    18:00 +12°C° 0.3 mm 1 m/S 580 mmHg 78%
    19:00 +10°C° 0.3 mm 1 m/S 579 mmHg 88%
    20:00 +10°C° 0 mm 1 m/S 579 mmHg 89%
    21:00 +9°C° 0 mm 1 m/S 579 mmHg 91%
    22:00 +7°C° 0 mm 0 m/S 578 mmHg 92%
    23:00 +6°C° 0 mm 0 m/S 578 mmHg 92%

    26 August, Montag

    Zeit Temperatur Niederschläge Wind Luftdruck Luftfeuchtigkeit
    00:00 +6°C° 0 mm 0 m/S 578 mmHg 92%
    01:00 +6°C° 0 mm 0 m/S 578 mmHg 92%
    02:00 +5°C° 0 mm 0 m/S 577 mmHg 92%
    03:00 +5°C° 0 mm 0 m/S 577 mmHg 92%
    04:00 +5°C° 0 mm 0 m/S 577 mmHg 91%
    05:00 +6°C° 0 mm 0 m/S 578 mmHg 88%
    06:00 +8°C° 0 mm 0 m/S 579 mmHg 85%
    07:00 +10°C° 0 mm 0 m/S 580 mmHg 82%
    08:00 +11°C° 0 mm 0 m/S 581 mmHg 73%
    09:00 +13°C° 0 mm 0 m/S 582 mmHg 64%
    10:00 +15°C° 0 mm 0 m/S 582 mmHg 55%
    11:00 +18°C° 0.1 mm 1 m/S 583 mmHg 51%
    12:00 +18°C° 0.1 mm 1 m/S 583 mmHg 47%
    13:00 +19°C° 0.1 mm 1 m/S 583 mmHg 43%
    14:00 +18°C° 0.3 mm 2 m/S 583 mmHg 46%
    15:00 +18°C° 0.3 mm 2 m/S 583 mmHg 49%
    16:00 +17°C° 0.3 mm 2 m/S 582 mmHg 52%
    17:00 +15°C° 0.2 mm 2 m/S 581 mmHg 63%
    18:00 +13°C° 0.2 mm 1 m/S 580 mmHg 75%
    19:00 +11°C° 0.2 mm 1 m/S 579 mmHg 86%
    20:00 +10°C° 0 mm 1 m/S 579 mmHg 88%
    21:00 +8°C° 0 mm 0 m/S 579 mmHg 89%
    22:00 +8°C° 0 mm 0 m/S 579 mmHg 91%
    23:00 +8°C° 0 mm 1 m/S 579 mmHg 90%

    27 August, Dienstag

    Zeit Temperatur Niederschläge Wind Luftdruck Luftfeuchtigkeit
    00:00 +8°C° 0 mm 1 m/S 578 mmHg 89%
    01:00 +8°C° 0 mm 1 m/S 578 mmHg 89%
    02:00 +8°C° 0 mm 1 m/S 578 mmHg 88%
    03:00 +8°C° 0 mm 1 m/S 578 mmHg 87%
    04:00 +8°C° 0 mm 1 m/S 578 mmHg 87%
    05:00 +9°C° 0 mm 1 m/S 578 mmHg 85%
    06:00 +10°C° 0 mm 1 m/S 579 mmHg 83%
    07:00 +11°C° 0 mm 1 m/S 579 mmHg 80%
    08:00 +13°C° 0 mm 1 m/S 580 mmHg 73%
    09:00 +14°C° 0 mm 1 m/S 581 mmHg 66%
    10:00 +16°C° 0 mm 1 m/S 582 mmHg 59%
    11:00 +18°C° 1.1 mm 1 m/S 582 mmHg 58%
    12:00 +18°C° 1.1 mm 1 m/S 582 mmHg 58%
    13:00 +18°C° 1.1 mm 1 m/S 582 mmHg 58%
    14:00 +18°C° 2 mm 1 m/S 581 mmHg 62%
    15:00 +16°C° 2 mm 1 m/S 580 mmHg 66%
    16:00 +15°C° 2 mm 1 m/S 580 mmHg 70%
    17:00 +14°C° 1.5 mm 1 m/S 579 mmHg 75%
    18:00 +13°C° 1.5 mm 1 m/S 579 mmHg 80%
    19:00 +12°C° 1.5 mm 1 m/S 578 mmHg 86%
    20:00 +11°C° 0.7 mm 1 m/S 578 mmHg 86%
    21:00 +10°C° 0.7 mm 1 m/S 578 mmHg 87%
    22:00 +10°C° 0.7 mm 1 m/S 578 mmHg 87%
    23:00 +8°C° 0.2 mm 2 m/S 578 mmHg 87%
    Mehr zeigen